Home   Weather   Norman Wells   Past weeks

Flag for Canada Past Weather in Norman Wells, Northwest Territories, Canada — Yesterday and Last 2 Weeks

Now
39 °F

Sunny.


Feels Like: 32 °F
Forecast: 23 / 40 °F
Wind: 13 mph from Southeast

Location: Norman Wells

Current Time: Apr 30, 2017 at 6:59:45 pm

Latest Report: Apr 30, 2017 at 6:00 pm


Visibility: 30 mi

Pressure: 30.06 "Hg

Humidity: 56%

Dew Point: 25 °F

Location of Norman WellsLocation

Past Weather in Norman Wells — Graph

°F

Norman Wells Temperature Yesterday

Maximum temperature yesterday: 39 °F (at 5:00 pm)
Minimum temperature yesterday: 25 °F (at 4:00 am)
Average temperature yesterday: 31 °F

High & Low Weather Summary for the Past Weeks

 TemperatureHumidityPressure
High43 °F (Apr 24, 7:00 pm)85% (Apr 24, 7:00 am)30.76 "Hg (Apr 24, 7:00 am)
Low-9 °F (Apr 21, 7:00 am)30% (Apr 24, 10:00 pm)29.79 "Hg (Apr 24, 11:00 pm)
Average18 °F61%30.23 "Hg
* Reported Apr 15 5:00 pm — Apr 30 5:00 pm, Norman Wells, Weather by CustomWeather, © 2017

Note: Actual official high and low records may vary slightly from our data, if they occured in-between our weather recording intervals... More about our weather records

Advertising

Norman Wells Weather History for the Previous 24 Hours

Scroll right to see more
 ConditionsComfort  
Time TempWeatherWind HumidityBarometerVisibility
5:00 pm
Sun, Apr 30
39 °FSunny.10 mph56%30.07 "Hg30 mi
4:00 pm37 °FSunny.10 mph56%30.08 "Hg30 mi
3:00 pm36 °FPassing clouds.10 mph60%30.08 "Hg30 mi
2:00 pm34 °FPartly sunny.10 mph60%30.09 "Hg30 mi
1:00 pm32 °FPartly sunny.8 mph64%30.10 "Hg30 mi
12:00 pm30 °FBroken clouds.10 mph64%30.10 "Hg30 mi
11:00 am28 °FBroken clouds.9 mph64%30.11 "Hg30 mi
10:00 am27 °FPartly sunny.8 mph69%30.11 "Hg30 mi
9:00 am25 °FScattered clouds.8 mph74%30.11 "Hg30 mi
8:00 am25 °FPartly sunny.7 mph69%30.11 "Hg30 mi
7:00 am25 °FPartly sunny.5 mph74%30.11 "Hg30 mi
6:00 am25 °FPassing clouds.5 mph80%30.11 "Hg30 mi
5:00 am27 °FPassing clouds.6 mph74%30.10 "Hg30 mi
4:00 am27 °FPassing clouds.5 mph69%30.09 "Hg30 mi
3:00 am27 °FPassing clouds.6 mph74%30.08 "Hg30 mi
2:00 am28 °FPassing clouds.6 mph69%30.08 "Hg30 mi
1:00 am30 °FPassing clouds.5 mph64%30.07 "Hg30 mi
12:00 am32 °FPassing clouds.9 mph60%30.06 "Hg30 mi
11:00 pm
Sat, Apr 29
34 °FPassing clouds.5 mph56%30.06 "Hg30 mi
10:00 pm36 °FPassing clouds.6 mph56%30.06 "Hg30 mi
9:00 pm39 °FPassing clouds.2 mph52%30.06 "Hg30 mi
8:00 pm39 °FPassing clouds.No wind48%30.06 "Hg30 mi
7:00 pm39 °FScattered clouds.3 mph52%30.07 "Hg30 mi
6:00 pm39 °FScattered clouds.6 mph52%30.09 "Hg30 mi
Weather by CustomWeather, © 2017

See weather overviewHow to use our weather pages